TAN03 EGNX-EGNS

Flight info

Callsign TAN03
Flight time 0h 51m
Altitude 10000
Route TNT UQ4 VABKA DCT WAL L10 KELLY
Aircraft C414/L-SBDFGRY/S

Departure

Time 2026-04-22 12:37
Airport East Midlands Airport (EGNX)

Arrival

Time 2026-04-22 13:28
Airport Isle of Man Airport (EGNS)
Time Latitude Longitude Altitude Speed Heading
2026-04-22 12:27 52.82647 -1.33971 295 ft 0 kts 59°
2026-04-22 12:28 52.82647 -1.33972 295 ft 0 kts 59°
2026-04-22 12:33 52.82649 -1.33967 295 ft 5 kts 53°
2026-04-22 12:33 52.82675 -1.33915 304 ft 5 kts 48°
2026-04-22 12:33 52.82721 -1.33827 295 ft 13 kts 58°
2026-04-22 12:34 52.82772 -1.33711 295 ft 11 kts 23°
2026-04-22 12:34 52.82835 -1.33718 295 ft 8 kts 352°
2026-04-22 12:34 52.82905 -1.33766 302 ft 14 kts 292°
2026-04-22 12:34 52.82910 -1.33948 298 ft 20 kts 268°
2026-04-22 12:35 52.82905 -1.34217 295 ft 27 kts 269°
2026-04-22 12:35 52.82905 -1.34539 298 ft 26 kts 265°
2026-04-22 12:35 52.82993 -1.34670 297 ft 18 kts
2026-04-22 12:35 52.83072 -1.34580 298 ft 12 kts 79°
2026-04-22 12:36 52.83077 -1.34380 295 ft 37 kts 88°
2026-04-22 12:36 52.83085 -1.33701 302 ft 78 kts 88°
2026-04-22 12:36 52.83099 -1.32701 382 ft 95 kts 87°
2026-04-22 12:36 52.83131 -1.31485 545 ft 116 kts 85°
2026-04-22 12:37 52.83115 -1.30058 723 ft 132 kts 95°
2026-04-22 12:37 52.83012 -1.28512 999 ft 137 kts 93°
2026-04-22 12:37 52.82922 -1.26932 1278 ft 138 kts 92°
2026-04-22 12:37 52.82980 -1.25368 1541 ft 137 kts 75°
2026-04-22 12:38 52.83415 -1.23960 1812 ft 141 kts 55°
2026-04-22 12:38 52.84188 -1.22906 2062 ft 149 kts 32°
2026-04-22 12:38 52.85203 -1.22474 2319 ft 156 kts
2026-04-22 12:38 52.86286 -1.22850 2578 ft 166 kts 341°
2026-04-22 12:39 52.87210 -1.24127 2842 ft 178 kts 312°
2026-04-22 12:39 52.88644 -1.27520 3412 ft 179 kts 309°
2026-04-22 12:39 52.89352 -1.29204 3697 ft 178 kts 309°
2026-04-22 12:40 52.90067 -1.30879 3968 ft 178 kts 309°
2026-04-22 12:40 52.90785 -1.32548 4258 ft 179 kts 309°
2026-04-22 12:40 52.91512 -1.34252 4533 ft 182 kts 308°
2026-04-22 12:40 52.92248 -1.35976 4815 ft 184 kts 308°
2026-04-22 12:41 52.92989 -1.37718 5101 ft 186 kts 308°
2026-04-22 12:41 52.93734 -1.39466 5378 ft 185 kts 308°
2026-04-22 12:41 52.94476 -1.41205 5654 ft 185 kts 308°
2026-04-22 12:41 52.95215 -1.42946 5933 ft 184 kts 307°
2026-04-22 12:42 52.95954 -1.44688 6211 ft 185 kts 307°
2026-04-22 12:42 52.96697 -1.46432 6496 ft 185 kts 307°
2026-04-22 12:42 52.97442 -1.48184 6784 ft 187 kts 306°
2026-04-22 12:42 52.98190 -1.49952 7056 ft 188 kts 306°
2026-04-22 12:43 52.98944 -1.51733 7324 ft 188 kts 306°
2026-04-22 12:43 52.99700 -1.53516 7609 ft 190 kts 305°
2026-04-22 12:43 53.00461 -1.55312 7867 ft 190 kts 305°
2026-04-22 12:43 53.01221 -1.57112 8152 ft 190 kts 305°
2026-04-22 12:44 53.01983 -1.58911 8422 ft 191 kts 305°
2026-04-22 12:44 53.02742 -1.60707 8701 ft 189 kts 304°
2026-04-22 12:44 53.03496 -1.62493 8983 ft 188 kts 304°
2026-04-22 12:44 53.04246 -1.64271 9269 ft 187 kts 304°
2026-04-22 12:45 53.04993 -1.66042 9559 ft 187 kts 304°
2026-04-22 12:45 53.05568 -1.67955 9834 ft 185 kts 280°
2026-04-22 12:45 53.05902 -1.70055 9997 ft 194 kts 282°
2026-04-22 12:45 53.06301 -1.72313 10010 ft 208 kts 283°
2026-04-22 12:46 53.06706 -1.74647 10003 ft 216 kts 283°
2026-04-22 12:46 53.07127 -1.77118 10002 ft 222 kts 283°
2026-04-22 12:46 53.07551 -1.79605 10001 ft 224 kts 283°
2026-04-22 12:46 53.07977 -1.82111 9999 ft 226 kts 283°
2026-04-22 12:47 53.08404 -1.84633 9993 ft 228 kts 283°
2026-04-22 12:47 53.08837 -1.87175 9991 ft 229 kts 283°
2026-04-22 12:47 53.09269 -1.89723 9993 ft 230 kts 283°
2026-04-22 12:47 53.09704 -1.92296 9990 ft 232 kts 282°
2026-04-22 12:48 53.10141 -1.94886 9989 ft 233 kts 283°
2026-04-22 12:48 53.10579 -1.97484 9992 ft 232 kts 283°
2026-04-22 12:48 53.11010 -2.00042 9991 ft 227 kts 283°
2026-04-22 12:48 53.11432 -2.02575 9981 ft 227 kts 282°
2026-04-22 12:49 53.11863 -2.05109 9976 ft 228 kts 283°
2026-04-22 12:49 53.12287 -2.07638 9975 ft 227 kts 283°
2026-04-22 12:49 53.12710 -2.10172 9973 ft 226 kts 283°
2026-04-22 12:49 53.13129 -2.12679 9980 ft 224 kts 283°
2026-04-22 12:50 53.13544 -2.15174 9979 ft 224 kts 283°
2026-04-22 12:50 53.13960 -2.17664 9979 ft 222 kts 283°
2026-04-22 12:50 53.14401 -2.20127 9972 ft 223 kts 290°
2026-04-22 12:50 53.15095 -2.22454 9972 ft 224 kts 296°
2026-04-22 12:51 53.15794 -2.24767 9974 ft 223 kts 295°
2026-04-22 12:51 53.16479 -2.27078 9974 ft 222 kts 295°
2026-04-22 12:51 53.17165 -2.29384 9972 ft 222 kts 295°
2026-04-22 12:51 53.17852 -2.31690 9973 ft 223 kts 295°
2026-04-22 12:52 53.18540 -2.34000 9973 ft 222 kts 295°
2026-04-22 12:52 53.19228 -2.36303 9974 ft 222 kts 295°
2026-04-22 12:52 53.19916 -2.38623 9970 ft 224 kts 295°
2026-04-22 12:52 53.20612 -2.40972 9969 ft 226 kts 295°
2026-04-22 12:53 53.21084 -2.42562 9969 ft 227 kts 295°
2026-04-22 12:53 53.21785 -2.44914 9971 ft 226 kts 295°
2026-04-22 12:53 53.22479 -2.47269 9969 ft 227 kts 295°
2026-04-22 12:53 53.23179 -2.49644 9963 ft 229 kts 295°
2026-04-22 12:54 53.23883 -2.52018 9965 ft 228 kts 295°
2026-04-22 12:54 53.24585 -2.54396 9973 ft 227 kts 295°
2026-04-22 12:54 53.25281 -2.56752 9978 ft 225 kts 295°
2026-04-22 12:54 53.25972 -2.59102 9975 ft 226 kts 295°
2026-04-22 12:55 53.26665 -2.61451 9971 ft 225 kts 295°
2026-04-22 12:55 53.27355 -2.63790 9972 ft 225 kts 296°
2026-04-22 12:55 53.28045 -2.66145 9969 ft 225 kts 295°
2026-04-22 12:55 53.28728 -2.68486 9963 ft 224 kts 295°
2026-04-22 12:56 53.29416 -2.70832 9959 ft 225 kts 295°
2026-04-22 12:56 53.30105 -2.73181 9958 ft 224 kts 295°
2026-04-22 12:56 53.30683 -2.75590 9953 ft 223 kts 289°
2026-04-22 12:56 53.31228 -2.78019 9952 ft 223 kts 289°
2026-04-22 12:57 53.31781 -2.80448 9951 ft 224 kts 289°
2026-04-22 12:57 53.32333 -2.82883 9969 ft 224 kts 289°
2026-04-22 12:57 53.32892 -2.85355 9971 ft 225 kts 289°
2026-04-22 12:57 53.33444 -2.87800 9987 ft 224 kts 289°
2026-04-22 12:58 53.33993 -2.90236 9992 ft 223 kts 289°
2026-04-22 12:58 53.34540 -2.92663 9994 ft 223 kts 289°
2026-04-22 12:58 53.35086 -2.95091 9994 ft 223 kts 289°
2026-04-22 12:58 53.35632 -2.97520 9993 ft 223 kts 289°
2026-04-22 12:59 53.36177 -2.99951 9994 ft 224 kts 289°
2026-04-22 12:59 53.36725 -3.02390 9989 ft 224 kts 289°
2026-04-22 12:59 53.37272 -3.04832 9989 ft 223 kts 289°
2026-04-22 12:59 53.37815 -3.07267 9987 ft 223 kts 289°
2026-04-22 13:00 53.38358 -3.09692 9994 ft 222 kts 289°
2026-04-22 13:00 53.38899 -3.12111 9995 ft 222 kts 289°
2026-04-22 13:00 53.39593 -3.14409 9994 ft 222 kts 306°
2026-04-22 13:00 53.40510 -3.16490 9990 ft 222 kts 306°
2026-04-22 13:01 53.41404 -3.18606 9993 ft 222 kts 305°
2026-04-22 13:01 53.42299 -3.20713 9992 ft 222 kts 305°
2026-04-22 13:01 53.43199 -3.22823 9991 ft 222 kts 305°
2026-04-22 13:01 53.44098 -3.24930 9998 ft 222 kts 305°
2026-04-22 13:02 53.44997 -3.27041 9997 ft 223 kts 305°
2026-04-22 13:02 53.45898 -3.29159 9996 ft 223 kts 305°
2026-04-22 13:02 53.46799 -3.31278 9997 ft 223 kts 305°
2026-04-22 13:02 53.47699 -3.33399 9996 ft 223 kts 305°
2026-04-22 13:03 53.48599 -3.35519 9996 ft 223 kts 305°
2026-04-22 13:03 53.49500 -3.37642 9996 ft 223 kts 305°
2026-04-22 13:03 53.50401 -3.39771 9996 ft 224 kts 305°
2026-04-22 13:03 53.51302 -3.41898 9998 ft 224 kts 305°
2026-04-22 13:04 53.52202 -3.44028 9994 ft 224 kts 305°
2026-04-22 13:04 53.53101 -3.46155 9992 ft 223 kts 305°
2026-04-22 13:04 53.53999 -3.48283 9994 ft 223 kts 305°
2026-04-22 13:04 53.54897 -3.50409 9991 ft 222 kts 305°
2026-04-22 13:05 53.55789 -3.52527 9993 ft 222 kts 305°
2026-04-22 13:05 53.56684 -3.54652 9993 ft 223 kts 305°
2026-04-22 13:05 53.57577 -3.56775 9993 ft 222 kts 305°
2026-04-22 13:05 53.58470 -3.58898 9991 ft 222 kts 305°
2026-04-22 13:06 53.59361 -3.61020 9979 ft 223 kts 305°
2026-04-22 13:06 53.60284 -3.63217 9793 ft 230 kts 304°
2026-04-22 13:06 53.61203 -3.65411 9617 ft 234 kts 304°
2026-04-22 13:06 53.62156 -3.67683 9435 ft 234 kts 304°
2026-04-22 13:07 53.63096 -3.69929 9255 ft 235 kts 304°
2026-04-22 13:07 53.64038 -3.72179 9069 ft 235 kts 304°
2026-04-22 13:07 53.64978 -3.74431 8896 ft 235 kts 304°
2026-04-22 13:07 53.65915 -3.76676 8717 ft 234 kts 304°
2026-04-22 13:08 53.66854 -3.78925 8535 ft 234 kts 304°
2026-04-22 13:08 53.67791 -3.81175 8361 ft 234 kts 304°
2026-04-22 13:08 53.68728 -3.83424 8180 ft 234 kts 304°
2026-04-22 13:08 53.69659 -3.85663 8004 ft 233 kts 304°
2026-04-22 13:09 53.70587 -3.87895 7829 ft 232 kts 304°
2026-04-22 13:09 53.71512 -3.90125 7654 ft 232 kts 304°
2026-04-22 13:09 53.72438 -3.92355 7480 ft 231 kts 304°
2026-04-22 13:09 53.73360 -3.94579 7308 ft 231 kts 304°
2026-04-22 13:10 53.74278 -3.96799 7135 ft 231 kts 304°
2026-04-22 13:10 53.75197 -3.99017 6962 ft 230 kts 304°
2026-04-22 13:10 53.76112 -4.01231 6791 ft 230 kts 304°
2026-04-22 13:10 53.77025 -4.03442 6609 ft 229 kts 304°
2026-04-22 13:11 53.77938 -4.05655 6443 ft 230 kts 304°
2026-04-22 13:11 53.78853 -4.07873 6262 ft 230 kts 304°
2026-04-22 13:11 53.79768 -4.10095 6083 ft 230 kts 304°
2026-04-22 13:11 53.80681 -4.12313 5903 ft 230 kts 304°
2026-04-22 13:12 53.81597 -4.14542 5724 ft 230 kts 304°
2026-04-22 13:12 53.82510 -4.16763 5546 ft 230 kts 305°
2026-04-22 13:12 53.83422 -4.18984 5370 ft 230 kts 304°
2026-04-22 13:12 53.84331 -4.21203 5194 ft 229 kts 304°
2026-04-22 13:13 53.85239 -4.23418 5016 ft 229 kts 305°
2026-04-22 13:13 53.86146 -4.25634 4832 ft 229 kts 305°
2026-04-22 13:13 53.87052 -4.27848 4658 ft 229 kts 305°
2026-04-22 13:13 53.87960 -4.30070 4473 ft 229 kts 305°
2026-04-22 13:14 53.88867 -4.32291 4294 ft 229 kts 305°
2026-04-22 13:14 53.89772 -4.34512 4112 ft 229 kts 305°
2026-04-22 13:14 53.90727 -4.36658 4025 ft 224 kts 317°
2026-04-22 13:14 53.91890 -4.38335 4008 ft 217 kts 323°
2026-04-22 13:15 53.93027 -4.39990 4012 ft 214 kts 322°
2026-04-22 13:15 53.94145 -4.41630 4009 ft 212 kts 322°
2026-04-22 13:15 53.95256 -4.43267 4010 ft 211 kts 322°
2026-04-22 13:15 53.96363 -4.44897 4010 ft 210 kts 322°
2026-04-22 13:16 53.97481 -4.46547 3979 ft 212 kts 322°
2026-04-22 13:16 53.98607 -4.48207 3854 ft 216 kts 322°
2026-04-22 13:16 53.99748 -4.49892 3731 ft 218 kts 322°
2026-04-22 13:16 54.00895 -4.51587 3605 ft 219 kts 322°
2026-04-22 13:17 54.02042 -4.53288 3476 ft 219 kts 322°
2026-04-22 13:17 54.03178 -4.54971 3344 ft 214 kts 322°
2026-04-22 13:17 54.04293 -4.56622 3210 ft 211 kts 322°
2026-04-22 13:17 54.05390 -4.58258 3076 ft 209 kts 321°
2026-04-22 13:18 54.06240 -4.60238 3014 ft 207 kts 295°
2026-04-22 13:18 54.06619 -4.62591 2898 ft 210 kts 272°
2026-04-22 13:18 54.06478 -4.65058 2760 ft 210 kts 248°
2026-04-22 13:18 54.05831 -4.67259 2629 ft 207 kts 226°
2026-04-22 13:19 54.04934 -4.69192 2515 ft 210 kts 225°
2026-04-22 13:19 54.04035 -4.71161 2393 ft 211 kts 225°
2026-04-22 13:19 54.03127 -4.73137 2267 ft 213 kts 225°
2026-04-22 13:19 54.02216 -4.75115 2147 ft 213 kts 224°
2026-04-22 13:20 54.01302 -4.77096 2018 ft 213 kts 225°
2026-04-22 13:20 54.00404 -4.79049 2004 ft 207 kts 224°
2026-04-22 13:20 53.99519 -4.80965 1998 ft 204 kts 224°
2026-04-22 13:20 53.98747 -4.82983 1992 ft 208 kts 242°
2026-04-22 13:21 53.98448 -4.85403 2000 ft 213 kts 266°
2026-04-22 13:21 53.98692 -4.87879 2000 ft 214 kts 292°
2026-04-22 13:21 53.99444 -4.89997 2003 ft 205 kts 317°
2026-04-22 13:21 54.00530 -4.91442 2001 ft 193 kts 341°
2026-04-22 13:22 54.01752 -4.92133 2000 ft 179 kts
2026-04-22 13:22 54.02951 -4.92137 1998 ft 167 kts 20°
2026-04-22 13:22 54.04020 -4.91581 1999 ft 156 kts 37°
2026-04-22 13:22 54.04900 -4.90607 2004 ft 148 kts 51°
2026-04-22 13:23 54.05415 -4.89219 2007 ft 138 kts 72°
2026-04-22 13:23 54.05881 -4.87737 2011 ft 142 kts 72°
2026-04-22 13:23 54.06147 -4.86159 2020 ft 142 kts 84°
2026-04-22 13:23 54.06341 -4.84468 2011 ft 145 kts 84°
2026-04-22 13:24 54.06506 -4.82765 2012 ft 147 kts 85°
2026-04-22 13:24 54.06662 -4.81044 2010 ft 147 kts 86°
2026-04-22 13:24 54.06804 -4.79351 2006 ft 142 kts 86°
2026-04-22 13:24 54.06941 -4.77715 2006 ft 139 kts 86°
2026-04-22 13:25 54.07030 -4.76661 1896 ft 130 kts 86°
2026-04-22 13:25 54.07155 -4.75206 1698 ft 120 kts 85°
2026-04-22 13:25 54.07264 -4.73892 1508 ft 103 kts 85°
2026-04-22 13:25 54.07360 -4.72760 1343 ft 91 kts 84°
2026-04-22 13:26 54.07450 -4.71728 1204 ft 86 kts 84°
2026-04-22 13:26 54.07531 -4.70731 1076 ft 84 kts 83°
2026-04-22 13:26 54.07615 -4.69762 951 ft 82 kts 82°
2026-04-22 13:26 54.07694 -4.68788 813 ft 84 kts 81°
2026-04-22 13:27 54.07784 -4.67756 668 ft 91 kts 82°
2026-04-22 13:27 54.07873 -4.66709 523 ft 88 kts 81°
2026-04-22 13:27 54.07954 -4.65706 385 ft 81 kts 82°
2026-04-22 13:27 54.08047 -4.64792 250 ft 77 kts 79°
2026-04-22 13:28 54.08145 -4.63873 105 ft 80 kts 79°
2026-04-22 13:28 54.08253 -4.63015 36 ft 61 kts 78°
2026-04-22 13:28 54.08322 -4.62436 30 ft 41 kts 77°
2026-04-22 13:28 54.08377 -4.61980 28 ft 37 kts 79°
2026-04-22 13:29 54.08428 -4.61590 29 ft 28 kts 76°
2026-04-22 13:29 54.08501 -4.61437 28 ft 15 kts 338°
2026-04-22 13:29 54.08538 -4.61605 28 ft 19 kts 276°
2026-04-22 13:29 54.08554 -4.61869 29 ft 25 kts 277°
2026-04-22 13:30 54.08575 -4.62157 30 ft 25 kts 276°
2026-04-22 13:30 54.08598 -4.62463 30 ft 25 kts 277°
2026-04-22 13:30 54.08622 -4.62795 29 ft 29 kts 278°
2026-04-22 13:30 54.08623 -4.63087 28 ft 21 kts 262°
2026-04-22 13:31 54.08577 -4.63254 27 ft 14 kts 230°
2026-04-22 13:31 54.08554 -4.63388 28 ft 11 kts 301°
2026-04-22 13:31 54.08599 -4.63396 28 ft 6 kts 54°
2026-04-22 13:31 54.08613 -4.63372 28 ft 0 kts 43°